Weather History for Jonesville, VA

Change the Weather History Date:

Wednesday, May 9, 2012

  Actual Average (KLOZ) Record (KLOZ)
Temperature  
Mean Temperature 60 °F 63 °F  
Max Temperature 68 °F 75 °F 88 °F (1963)
Min Temperature 53 °F 51 °F 33 °F (1976)
Degree Days  
Heating Degree Days 4 4  
Month to date heating degree days 40  
Since 1 July heating degree days 4141  
Cooling Degree Days 0 2  
Month to date cooling degree days 13  
Year to date cooling degree days 39  
Growing Degree Days 10 (Base 50)    
Moisture  
Dew Point 54 °F    
Average Humidity 80    
Maximum Humidity 100    
Minimum Humidity 43    
Precipitation  
Precipitation 0.15 in 0.17 in 0.67 in (2009)
Month to date precipitation 1.45  
Year to date precipitation 16.80  
Sea Level Pressure  
Sea Level Pressure 29.89 in    
Wind  
Wind Speed 1 mph (WNW)    
Max Wind Speed 9 mph    
Max Gust Speed 16 mph    
Visibility 8 miles    
Events Rain    
T = Trace of Precipitation, MM = Missing Value Source: NWS Daily Summary

Daily Weather History Graph

Daily Weather History Graph

Search for Another Location

Airport:

Trip Planner

Search our weather history database for the weather conditions in past years. The results will help you decide how hot, cold, wet, or windy it might be!

Date:

Astronomy

May. 09, 2012 Rise Set
Actual Time 6:30 AM EDT 8:28 PM EDT
Civil Twilight 6:02 AM EDT 8:57 PM EDT
Nautical Twilight 5:27 AM EDT 9:31 PM EDT
Astronomical Twilight 4:50 AM EDT 10:08 PM EDT
Moon No Moon Rise 9:46 AM EDT (5/9)
Length of Visible Light 14h 55m
Length of Day
13h 58m
Waning Gibbous, 83% of the Moon is Illuminated
May 9
Waning Gibbous
May 12
Last Quarter
May 20
New
May 28
First Quarter
Jun 4
Full

Hourly Weather History & Observations

Time (EDT) Temp. Dew Point Humidity Pressure Visibility Wind Dir Wind Speed Gust Speed Precip Events Conditions
12:15 AM 59.0 °F 59.0 °F 100% 29.94 in 7.0 mi Calm Calm - N/A   Partly Cloudy
12:35 AM 59.0 °F 59.0 °F 100% 29.93 in 5.0 mi Calm Calm - N/A   Clear
12:55 AM 59.0 °F 59.0 °F 100% 29.93 in 5.0 mi Calm Calm - N/A   Clear
1:15 AM 57.2 °F 57.2 °F 100% 29.93 in 5.0 mi Calm Calm - N/A   Scattered Clouds
1:35 AM 59.0 °F 59.0 °F 100% 29.93 in 5.0 mi Calm Calm - N/A   Overcast
1:55 AM 59.0 °F 59.0 °F 100% 29.92 in 6.0 mi Calm Calm - N/A   Mist
2:15 AM 59.0 °F 59.0 °F 100% 29.92 in 6.0 mi Calm Calm - N/A   Mist
2:35 AM 59.0 °F 59.0 °F 100% 29.92 in 5.0 mi Calm Calm - N/A   Mist
2:55 AM 59.0 °F 59.0 °F 100% 29.91 in 5.0 mi Calm Calm - N/A   Mist
3:15 AM 59.0 °F 59.0 °F 100% 29.91 in 7.0 mi Calm Calm - N/A   Unknown
3:35 AM 59.0 °F 59.0 °F 100% 29.91 in 7.0 mi Calm Calm - N/A   Unknown
3:55 AM 59.0 °F 59.0 °F 100% 29.91 in 7.0 mi Calm Calm - N/A   Unknown
4:15 AM 59.0 °F 59.0 °F 100% 29.91 in 5.0 mi Calm Calm - N/A   Overcast
4:35 AM 59.0 °F 59.0 °F 100% 29.90 in 5.0 mi Calm Calm - N/A   Overcast
4:55 AM 59.0 °F 59.0 °F 100% 29.90 in 5.0 mi Calm Calm - N/A   Overcast
5:15 AM 59.0 °F 59.0 °F 100% 29.89 in 5.0 mi Calm Calm - N/A   Overcast
5:35 AM 59.0 °F 59.0 °F 100% 29.89 in 5.0 mi Calm Calm - N/A   Overcast
5:55 AM 59.0 °F 59.0 °F 100% 29.89 in 5.0 mi Calm Calm - N/A   Mist
6:15 AM 60.8 °F 59.0 °F 94% 29.90 in 7.0 mi Calm Calm - N/A   Unknown
6:35 AM 59.0 °F 59.0 °F 100% 29.90 in 7.0 mi Calm Calm - N/A   Unknown
7:15 AM 59.0 °F 59.0 °F 100% 29.91 in 3.0 mi Calm Calm - 0.01 in Rain Light Rain
7:35 AM 59.0 °F 59.0 °F 100% 29.91 in 4.0 mi Calm Calm - 0.04 in Rain Light Rain
7:55 AM 60.8 °F 59.0 °F 94% 29.91 in 2.0 mi Calm Calm - 0.08 in Rain Light Rain
8:15 AM 59.0 °F 59.0 °F 100% 29.91 in 5.0 mi Calm Calm - N/A   Mostly Cloudy
8:35 AM 60.8 °F 59.0 °F 94% 29.91 in 9.0 mi Calm Calm - N/A   Overcast
8:55 AM 60.8 °F 59.0 °F 94% 29.90 in 6.0 mi Calm Calm - N/A   Mostly Cloudy
9:15 AM 60.8 °F 59.0 °F 94% 29.91 in 7.0 mi Calm Calm - N/A   Mostly Cloudy
9:35 AM 62.6 °F 59.0 °F 88% 29.91 in 9.0 mi Calm Calm - N/A   Mostly Cloudy
9:55 AM 62.6 °F 59.0 °F 88% 29.92 in 10.0 mi West 3.5 mph - N/A   Mostly Cloudy
10:15 AM 62.6 °F 57.2 °F 82% 29.92 in 10.0 mi WNW 5.8 mph - N/A   Overcast
10:35 AM 62.6 °F 57.2 °F 82% 29.93 in 10.0 mi WNW 4.6 mph - N/A Rain Light Rain
10:55 AM 62.6 °F 55.4 °F 77% 29.93 in 10.0 mi NW 5.8 mph - N/A Rain Light Rain
11:15 AM 62.6 °F 55.4 °F 77% 29.93 in 10.0 mi NW 3.5 mph - N/A Rain Light Rain
11:35 AM 60.8 °F 57.2 °F 88% 29.94 in 3.0 mi NW 3.5 mph - 0.02 in Rain Light Rain
11:55 AM 59.0 °F 55.4 °F 88% 29.93 in 3.0 mi West 3.5 mph - 0.07 in Rain Rain
12:15 PM 59.0 °F 55.4 °F 88% 29.93 in 9.0 mi Calm Calm - N/A   Clear
12:35 PM 60.8 °F 53.6 °F 77% 29.92 in 10.0 mi WSW 3.5 mph - N/A   Scattered Clouds
12:55 PM 60.8 °F 53.6 °F 77% 29.91 in 10.0 mi Calm Calm - N/A   Partly Cloudy
1:15 PM 62.6 °F 55.4 °F 77% 29.91 in 10.0 mi West 4.6 mph - N/A   Scattered Clouds
1:35 PM 62.6 °F 53.6 °F 72% 29.90 in 10.0 mi WSW 3.5 mph - N/A   Mostly Cloudy
1:55 PM 62.6 °F 55.4 °F 77% 29.90 in 10.0 mi West 4.6 mph - N/A   Mostly Cloudy
2:15 PM 62.6 °F 53.6 °F 72% 29.89 in 10.0 mi West 4.6 mph - N/A   Mostly Cloudy
2:35 PM 64.4 °F 53.6 °F 68% 29.88 in 10.0 mi Calm Calm - N/A   Partly Cloudy
2:55 PM 64.4 °F 53.6 °F 68% 29.87 in 10.0 mi NNW 4.6 mph - N/A   Partly Cloudy
3:15 PM 66.2 °F 51.8 °F 60% 29.86 in 10.0 mi Calm Calm - N/A   Partly Cloudy
3:35 PM 66.2 °F 51.8 °F 60% 29.85 in 10.0 mi NNW 3.5 mph - N/A   Scattered Clouds
3:55 PM 66.2 °F 53.6 °F 64% 29.85 in 10.0 mi West 4.6 mph - N/A   Mostly Cloudy
4:15 PM 66.2 °F 53.6 °F 64% 29.85 in 10.0 mi WSW 5.8 mph - N/A   Partly Cloudy
4:35 PM 66.2 °F 51.8 °F 60% 29.84 in 10.0 mi West 8.1 mph - N/A   Partly Cloudy
4:55 PM 66.2 °F 50.0 °F 56% 29.84 in 10.0 mi WNW 8.1 mph - N/A   Partly Cloudy
5:15 PM 66.2 °F 50.0 °F 56% 29.84 in 10.0 mi WNW 8.1 mph - N/A   Partly Cloudy
5:35 PM 66.2 °F 46.4 °F 49% 29.83 in 10.0 mi NW 5.8 mph - N/A   Clear
5:55 PM 68.0 °F 44.6 °F 43% 29.83 in 10.0 mi WNW 9.2 mph 16.1 mph N/A   Clear
6:15 PM 68.0 °F 44.6 °F 43% 29.83 in 10.0 mi WNW 5.8 mph - N/A   Clear
6:35 PM 68.0 °F 46.4 °F 46% 29.83 in 10.0 mi WNW 5.8 mph - N/A   Scattered Clouds
6:55 PM 66.2 °F 44.6 °F 46% 29.83 in 10.0 mi West 4.6 mph - N/A   Partly Cloudy
7:15 PM 66.2 °F 46.4 °F 49% 29.83 in 10.0 mi WNW 8.1 mph - N/A   Clear
7:35 PM 64.4 °F 42.8 °F 45% 29.83 in 10.0 mi West 6.9 mph - N/A   Partly Cloudy
7:55 PM 64.4 °F 44.6 °F 49% 29.84 in 10.0 mi WNW 4.6 mph - N/A   Mostly Cloudy
8:15 PM 62.6 °F 46.4 °F 55% 29.84 in 10.0 mi WNW 3.5 mph - N/A   Scattered Clouds
8:35 PM 59.0 °F 48.2 °F 67% 29.85 in 10.0 mi Calm Calm - N/A   Partly Cloudy
8:55 PM 59.0 °F 48.2 °F 67% 29.86 in 10.0 mi Calm Calm - N/A   Scattered Clouds
9:15 PM 59.0 °F 46.4 °F 63% 29.86 in 10.0 mi Calm Calm - N/A   Unknown
9:35 PM 57.2 °F 50.0 °F 77% 29.87 in 10.0 mi Calm Calm - N/A   Unknown
9:55 PM 57.2 °F 50.0 °F 77% 29.87 in 10.0 mi Calm Calm - N/A   Unknown
10:15 PM 55.4 °F 48.2 °F 77% 29.88 in 10.0 mi Calm Calm - N/A   Unknown
10:35 PM 55.4 °F 50.0 °F 82% 29.89 in 10.0 mi Calm Calm - N/A   Scattered Clouds
10:55 PM 53.6 °F 50.0 °F 88% 29.89 in 10.0 mi Calm Calm - N/A   Partly Cloudy
11:15 PM 53.6 °F 50.0 °F 88% 29.89 in 10.0 mi SW 3.5 mph - N/A   Clear
11:35 PM 53.6 °F 48.2 °F 82% 29.89 in 10.0 mi Calm Calm - N/A   Clear
11:55 PM 57.2 °F 42.8 °F 59% 29.89 in 10.0 mi NW 6.9 mph - N/A   Clear